Location: Oshawa
(43.9000°N, 78.8670°W)
Time: 07:45:44
(UTC-04:00)

Cosmos 839 Rocket - Visible Passes

Search period start: 30 September 2016 00:00
Search period end: 10 October 2016 00:00
Orbit: 961 x 2091 km, 65.9° (Epoch: 28 September)

Date Brightness Start Highest point End Pass type
(mag) Time Alt. Az. Time Alt. Az. Time Alt. Az.
30 Sep 4.4 20:10:58 10° NNW 20:18:47 61° NE 20:23:23 20° SE visible
30 Sep 5.8 22:12:23 10° NW 22:18:02 25° WSW 22:20:01 22° SW visible
01 Oct 4.8 19:28:58 10° NNW 19:36:33 43° NE 19:42:47 10° ESE visible
01 Oct 5.2 21:29:46 10° NW 21:36:34 40° WSW 21:39:42 25° SSW visible
02 Oct 4.6 20:47:28 10° NW 20:54:55 63° WSW 20:59:27 20° SSE visible
03 Oct 4.2 20:05:21 10° NNW 20:13:04 87° NE 20:19:21 11° SSE visible
03 Oct 6.5 22:07:58 10° WNW 22:11:40 15° W 22:15:07 10° SW visible
04 Oct 4.4 19:23:19 10° NNW 19:31:03 60° NE 19:37:23 10° SE visible
04 Oct 6.0 21:24:41 10° NW 21:30:20 25° WSW 21:35:22 10° SSW visible
05 Oct 5.4 20:42:05 10° NW 20:48:51 41° WSW 20:54:39 10° S visible
06 Oct 4.6 19:59:48 10° NW 20:07:12 64° WSW 20:13:23 10° SSE visible
07 Oct 4.3 19:17:40 10° NNW 19:25:21 86° ENE 19:31:40 10° SSE visible
07 Oct 6.6 21:20:14 10° WNW 21:23:58 15° W 21:27:28 10° SW visible
08 Oct 6.2 20:36:58 10° NW 20:42:37 26° WSW 20:47:40 10° SSW visible
09 Oct 5.5 19:54:23 10° NW 20:01:07 41° WSW 20:06:56 10° S visible
